Weather History for Alabaster, AL

Change the Weather History Date:

Friday, July 19, 2013

  Actual Average Record
Temperature  
Mean Temperature 82 °F 81 °F  
Max Temperature 91 °F 91 °F 104 °F (2000)
Min Temperature 72 °F 71 °F 55 °F (1967)
Cooling Degree Days 17 16  
Month to date cooling degree days 253 296  
Year to date cooling degree days 917 939  
Since 1 June cooling degree days 665 670  
Growing Degree Days 30 (Base 50)    
Moisture  
Dew Point 71 °F    
Average Humidity 74    
Maximum Humidity 100    
Minimum Humidity 47    
Precipitation  
Precipitation 0.00 in 0.15 in 1.15 in (1949)
Month to date precipitation 5.09 2.95  
Year to date precipitation 38.79 31.51  
Sea Level Pressure  
Sea Level Pressure 30.04 in    
Wind  
Wind Speed 1 mph (SSW)    
Max Wind Speed 8 mph    
Max Gust Speed 13 mph    
Visibility 10 miles    
Events      
T = Trace of Precipitation, MM = Missing Value Source: NWS Daily Summary

Daily Weather History Graph

Daily Weather History Graph

Search for Another Location

Airport:

Trip Planner

Search our weather history database for the weather conditions in past years. The results will help you decide how hot, cold, wet, or windy it might be!

Date:

Astronomy

Jul. 19, 2013 Rise Set
Actual Time 5:51 AM CDT 7:54 PM CDT
Civil Twilight 5:23 AM CDT 8:22 PM CDT
Nautical Twilight 4:49 AM CDT 8:56 PM CDT
Astronomical Twilight 4:13 AM CDT 9:32 PM CDT
Moon 4:57 PM CDT (7/19) 2:31 AM CDT (7/19)
Length of Visible Light 14h 59m
Length of Day
14h 03m
Waxing Gibbous, 87% of the Moon is Illuminated
Jul 19
Waxing Gibbous
Jul 22
Full
Jul 29
Last Quarter
Aug 6
New
Aug 14
First Quarter

Hourly Weather History & Observations

Time (CDT) Temp. Heat Index Dew Point Humidity Pressure Visibility Wind Dir Wind Speed Gust Speed Precip Events Conditions
12:53 AM 75.0 °F - 73.0 °F 94% 30.08 in 9.0 mi Calm Calm - N/A   Clear
1:53 AM 75.0 °F - 72.0 °F 90% 30.05 in 10.0 mi Calm Calm - N/A   Clear
2:53 AM 73.9 °F - 72.0 °F 93% 30.05 in 8.0 mi Calm Calm - N/A   Clear
3:53 AM 72.0 °F - 72.0 °F 100% 30.05 in 8.0 mi Calm Calm - N/A   Clear
4:53 AM 73.0 °F - 71.1 °F 93% 30.05 in 9.0 mi Calm Calm - N/A   Clear
5:53 AM 72.0 °F - 71.1 °F 97% 30.07 in 7.0 mi Calm Calm - N/A   Clear
6:53 AM 75.0 °F - 72.0 °F 90% 30.10 in 8.0 mi Calm Calm - N/A   Partly Cloudy
7:53 AM 78.1 °F - 73.0 °F 84% 30.11 in 10.0 mi Calm Calm - N/A   Clear
8:53 AM 80.1 °F 83.6 °F 71.1 °F 74% 30.11 in 10.0 mi Calm Calm - N/A   Clear
9:53 AM 82.0 °F 86.3 °F 71.1 °F 69% 30.11 in 10.0 mi Calm Calm - N/A   Clear
10:53 AM 84.9 °F 90.1 °F 71.1 °F 63% 30.10 in 10.0 mi Calm Calm - N/A   Clear
11:53 AM 86.0 °F 92.2 °F 72.0 °F 63% 30.09 in 10.0 mi WSW 3.5 mph - N/A   Mostly Cloudy
12:53 PM 86.0 °F 90.1 °F 69.1 °F 57% 30.06 in 10.0 mi Calm Calm - N/A   Partly Cloudy
1:53 PM 88.0 °F 92.1 °F 69.1 °F 53% 30.04 in 10.0 mi SSE 3.5 mph - N/A   Scattered Clouds
2:53 PM 88.0 °F 91.4 °F 68.0 °F 51% 30.01 in 10.0 mi Calm Calm - N/A   Partly Cloudy
3:53 PM 89.1 °F 92.1 °F 66.9 °F 48% 30.00 in 10.0 mi WSW 4.6 mph - N/A   Clear
4:53 PM 89.1 °F 92.9 °F 68.0 °F 50% 29.98 in 10.0 mi South 5.8 mph - N/A   Clear
5:53 PM 89.1 °F 92.1 °F 66.9 °F 48% 29.97 in 10.0 mi Variable 3.5 mph - N/A   Clear
6:53 PM 84.9 °F 89.4 °F 70.0 °F 61% 29.97 in 10.0 mi South 3.5 mph - N/A   Clear
7:53 PM 80.1 °F 83.8 °F 72.0 °F 76% 29.98 in 10.0 mi Calm Calm - N/A   Clear
8:53 PM 79.0 °F - 73.0 °F 82% 29.99 in 10.0 mi Calm Calm - N/A   Clear
9:53 PM 78.1 °F - 73.0 °F 84% 30.01 in 10.0 mi Calm Calm - N/A   Clear
10:53 PM 79.0 °F - 73.0 °F 82% 30.03 in 10.0 mi Calm Calm - N/A   Mostly Cloudy
11:53 PM 78.1 °F - 73.0 °F 84% 30.04 in 10.0 mi SSW 3.5 mph - N/A   Mostly Cloudy